| time (UTC) | temp F | wind direction | speed knots | gust knots | rain 1hr in | rain 24hr in | rain mn in | humidity % | barometer mb |
| 20260506113143 | 53 | 199 | 0.0 | 2.6 | 0.00 | 0.01 | 0.00 | 59 | 1018.8 |
| 20260506111651 | 53 | 199 | 0.0 | 3.5 | 0.00 | 0.01 | 0.00 | 59 | 1018.6 |
| 20260506110147 | 53 | 199 | 0.0 | 0.0 | 0.00 | 0.01 | 0.00 | 60 | 1018.4 |
| 20260506104657 | 54 | 199 | 0.0 | 3.5 | 0.00 | 0.03 | 0.00 | 60 | 1018.5 |
| 20260506103209 | 54 | 199 | 0.0 | 0.0 | 0.00 | 0.03 | 0.00 | 59 | 1018.6 |
| 20260506101647 | 54 | 212 | 0.0 | 0.0 | 0.00 | 0.03 | 0.00 | 60 | 1018.3 |
| 20260506100154 | 55 | 212 | 0.0 | 0.0 | 0.00 | 0.03 | 0.00 | 59 | 1018.2 |
| 20260506094652 | 56 | 213 | 1.7 | 2.6 | 0.00 | 0.06 | 0.00 | 59 | 1018.2 |
| 20260506093147 | 57 | 213 | 0.0 | 0.9 | 0.00 | 0.06 | 0.00 | 57 | 1018.2 |
| 20260506091652 | 57 | 213 | 0.0 | 2.6 | 0.00 | 0.06 | 0.00 | 57 | 1018.0 |
| 20260506090149 | 57 | 213 | 0.0 | 3.5 | 0.00 | 0.06 | 0.00 | 57 | 1018.2 |
| 20260506084703 | 57 | 237 | 0.0 | 0.0 | 0.00 | 0.09 | 0.00 | 59 | 1018.1 |
| 20260506083159 | 57 | 267 | 0.0 | 2.6 | 0.00 | 0.09 | 0.00 | 59 | 1018.3 |
| 20260506081650 | 57 | 267 | 0.0 | 2.6 | 0.00 | 0.09 | 0.00 | 58 | 1018.4 |
| 20260506080143 | 57 | 267 | 0.0 | 1.7 | 0.00 | 0.09 | 0.00 | 58 | 1018.4 |
| 20260506073211 | 59 | 267 | 0.0 | 0.0 | 0.00 | 0.14 | 0.00 | 54 | 1018.6 |
| 20260506071649 | 60 | 267 | 0.0 | 1.7 | 0.00 | 0.14 | 0.00 | 53 | 1018.6 |
| 20260506070155 | 61 | 267 | 0.9 | 2.6 | 0.00 | 0.14 | 0.00 | 50 | 1018.2 |
| 20260506061646 | 62 | 290 | 1.7 | 6.1 | 0.00 | 0.18 | 0.14 | 48 | 1018.1 |
| 20260506060218 | 62 | 280 | 2.6 | 4.3 | 0.00 | 0.18 | 0.14 | 47 | 1018.0 |
| 20260506050149 | 64 | 297 | 1.7 | 8.7 | 0.00 | 0.20 | 0.14 | 43 | 1017.7 |
| 20260506044654 | 64 | 265 | 3.5 | 8.7 | 0.00 | 0.21 | 0.14 | 43 | 1017.3 |
| 20260506043148 | 65 | 291 | 2.6 | 7.8 | 0.00 | 0.21 | 0.14 | 42 | 1017.3 |
| 20260506041700 | 65 | 258 | 3.5 | 8.7 | 0.00 | 0.21 | 0.14 | 40 | 1017.0 |
| 20260506040205 | 66 | 233 | 2.6 | 9.6 | 0.00 | 0.21 | 0.14 | 38 | 1017.0 |
| 20260506034537 | 66 | 254 | 6.1 | 8.7 | 0.00 | 0.21 | 0.14 | 33 | 1016.8 |
| 20260506033039 | 66 | 265 | 2.6 | 5.2 | 0.00 | 0.21 | 0.14 | 31 | 1016.6 |
| 20260506031716 | 67 | 273 | 1.7 | 7.8 | 0.00 | 0.21 | 0.14 | 30 | 1016.2 |
| 20260506030153 | 67 | 267 | 3.5 | 6.1 | 0.00 | 0.21 | 0.14 | 29 | 1016.1 |
| 20260506024659 | 68 | 291 | 6.1 | 7.8 | 0.00 | 0.27 | 0.14 | 28 | 1015.7 |
| 20260506023218 | 68 | 266 | 4.3 | 8.7 | 0.00 | 0.27 | 0.14 | 28 | 1015.6 |
| 20260506021653 | 68 | 264 | 3.5 | 10.4 | 0.00 | 0.27 | 0.14 | 28 | 1015.2 |
| 20260506020156 | 69 | 287 | 6.1 | 10.4 | 0.00 | 0.27 | 0.14 | 29 | 1015.0 |
| 20260506014656 | 70 | 274 | 5.2 | 11.3 | 0.00 | 0.29 | 0.14 | 28 | 1015.0 |
| 20260506013156 | 71 | 288 | 7.8 | 13.0 | 0.00 | 0.29 | 0.14 | 27 | 1014.8 |
| 20260506011650 | 72 | 281 | 9.6 | 12.2 | 0.00 | 0.29 | 0.14 | 24 | 1014.9 |
| 20260506010147 | 73 | 270 | 1.7 | 13.9 | 0.00 | 0.29 | 0.14 | 24 | 1014.6 |
| 20260506004644 | 74 | 257 | 7.0 | 14.8 | 0.00 | 0.31 | 0.14 | 24 | 1014.5 |
| 20260506003148 | 74 | 266 | 7.8 | 15.6 | 0.00 | 0.31 | 0.14 | 24 | 1014.2 |
| 20260506001643 | 75 | 253 | 6.1 | 14.8 | 0.00 | 0.31 | 0.14 | 24 | 1014.2 |
| 20260506000209 | 75 | 276 | 7.0 | 12.2 | 0.00 | 0.31 | 0.14 | 24 | 1014.3 |
| 20260505234647 | 75 | 253 | 6.1 | 12.2 | 0.00 | 0.31 | 0.14 | 25 | 1014.0 |
| 20260505233159 | 76 | 200 | 6.1 | 13.0 | 0.00 | 0.31 | 0.14 | 24 | 1013.9 |
| 20260505231646 | 76 | 229 | 5.2 | 13.0 | 0.00 | 0.31 | 0.14 | 24 | 1013.9 |
| 20260505230144 | 76 | 242 | 7.8 | 12.2 | 0.00 | 0.31 | 0.14 | 24 | 1013.9 |
| 20260505224719 | 76 | 211 | 7.0 | 13.9 | 0.00 | 0.31 | 0.14 | 24 | 1014.1 |
| 20260505223158 | 76 | 241 | 8.7 | 16.5 | 0.00 | 0.31 | 0.14 | 24 | 1014.1 |
| 20260505221720 | 76 | 242 | 7.0 | 13.9 | 0.00 | 0.31 | 0.14 | 24 | 1014.3 |
| 20260505220142 | 76 | 279 | 7.0 | 18.2 | 0.00 | 0.31 | 0.14 | 26 | 1014.4 |
| 20260505214701 | 76 | 255 | 6.1 | 18.2 | 0.00 | 0.31 | 0.14 | 27 | 1014.7 |
| 20260505213211 | 76 | 243 | 7.8 | 20.0 | 0.00 | 0.31 | 0.14 | 27 | 1014.8 |
| 20260505211648 | 75 | 275 | 9.6 | 18.2 | 0.00 | 0.31 | 0.14 | 28 | 1014.7 |
| 20260505210153 | 75 | 265 | 13.0 | 18.2 | 0.00 | 0.31 | 0.14 | 30 | 1014.7 |
| 20260505204655 | 75 | 269 | 12.2 | 18.2 | 0.00 | 0.31 | 0.14 | 31 | 1014.8 |
| 20260505203153 | 75 | 240 | 6.1 | 20.9 | 0.00 | 0.31 | 0.14 | 33 | 1014.8 |
| 20260505201657 | 75 | 243 | 4.3 | 14.8 | 0.00 | 0.31 | 0.14 | 34 | 1015.0 |
| 20260505200141 | 75 | 277 | 5.2 | 10.4 | 0.00 | 0.31 | 0.14 | 35 | 1014.9 |
| 20260505194641 | 73 | 181 | 1.7 | 8.7 | 0.00 | 0.31 | 0.14 | 43 | 1015.0 |
| 20260505193200 | 72 | 281 | 2.6 | 7.8 | 0.00 | 0.31 | 0.14 | 42 | 1015.5 |
| 20260505191641 | 74 | 186 | 0.0 | 8.7 | 0.00 | 0.31 | 0.14 | 44 | 1015.4 |
| 20260505190141 | 72 | 187 | 2.6 | 7.8 | 0.00 | 0.31 | 0.14 | 44 | 1015.5 |
| 20260505184641 | 71 | 180 | 2.6 | 7.8 | 0.00 | 0.31 | 0.14 | 47 | 1016.0 |
| 20260505183041 | 70 | 180 | 3.5 | 6.1 | 0.00 | 0.31 | 0.14 | 51 | 1016.2 |
| 20260505181643 | 70 | 180 | 2.6 | 7.0 | 0.00 | 0.31 | 0.14 | 51 | 1016.2 |
| 20260505180141 | 69 | 80 | 0.0 | 7.0 | 0.00 | 0.31 | 0.14 | 51 | 1016.3 |
| 20260505174526 | 69 | 78 | 2.6 | 6.1 | 0.00 | 0.31 | 0.14 | 53 | 1016.5 |
| 20260505173219 | 67 | 78 | 0.0 | 3.5 | 0.00 | 0.31 | 0.14 | 54 | 1016.3 |
| 20260505171655 | 66 | 78 | 0.0 | 0.0 | 0.00 | 0.31 | 0.14 | 58 | 1016.8 |
| 20260505170138 | 65 | 77 | 0.0 | 4.3 | 0.00 | 0.31 | 0.14 | 59 | 1016.6 |
| 20260505164656 | 64 | 78 | 0.0 | 0.9 | 0.00 | 0.31 | 0.14 | 60 | 1016.4 |
| 20260505163145 | 64 | 78 | 0.9 | 3.5 | 0.00 | 0.31 | 0.14 | 62 | 1016.7 |
| 20260505161652 | 63 | 78 | 0.0 | 1.7 | 0.00 | 0.31 | 0.14 | 64 | 1016.7 |
| 20260505160210 | 62 | 78 | 0.0 | 2.6 | 0.00 | 0.31 | 0.14 | 65 | 1016.6 |
| 20260505153147 | 60 | 78 | 0.0 | 2.6 | 0.00 | 0.31 | 0.14 | 71 | 1016.5 |
| 20260505151640 | 59 | 78 | 0.0 | 2.6 | 0.00 | 0.31 | 0.14 | 73 | 1016.4 |
| 20260505150147 | 59 | 78 | 1.7 | 1.7 | 0.00 | 0.31 | 0.14 | 74 | 1016.4 |
| 20260505140140 | 58 | 78 | 0.0 | 0.9 | 0.00 | 0.31 | 0.14 | 76 | 1015.9 |
| 20260505130150 | 58 | 78 | 0.0 | 1.7 | 0.01 | 0.31 | 0.14 | 77 | 1015.5 |
| 20260505124657 | 58 | 78 | 0.0 | 0.9 | 0.01 | 0.31 | 0.14 | 77 | 1015.4 |
| 20260505123143 | 58 | 78 | 0.0 | 1.7 | 0.01 | 0.31 | 0.13 | 77 | 1015.6 |
| 20260505121709 | 58 | 78 | 0.9 | 1.7 | 0.01 | 0.31 | 0.13 | 78 | 1015.3 |
| 20260505120144 | 58 | 78 | 0.0 | 0.0 | 0.00 | 0.30 | 0.13 | 78 | 1015.1 |
| 20260505114652 | 58 | 78 | 0.0 | 1.7 | 0.02 | 0.30 | 0.13 | 78 | 1015.0 |